EXS36AB EGNT-LSGG

Flight info

Callsign EXS36AB
Flight time 1h 49m
Altitude 37000
Route GIRLI P18 GASKO P16 RIBEL UP16 CROFT UL612 HON DCT XAMAB UL612 VEULE DCT PEKIM DCT PILUL DCT PIMUP DCT PIXIS DCT PIBAT DCT LUSAR
Aircraft B738/M-SDE2E3FGHIRWXY/LB1

Departure

Time 2026-05-04 09:44
Airport Newcastle International Airport (EGNT)

Arrival

Time 2026-05-04 11:33
Airport Geneva International Airport (LSGG)
Time Latitude Longitude Altitude Speed Heading
2026-05-04 09:28 55.03657 -1.70712 272 ft 0 kts
2026-05-04 09:35 55.03647 -1.70713 273 ft 4 kts
2026-05-04 09:35 55.03625 -1.70716 274 ft 4 kts
2026-05-04 09:37 55.03597 -1.70783 274 ft 0 kts 94°
2026-05-04 09:39 55.03597 -1.70782 274 ft 1 kts 94°
2026-05-04 09:39 55.03596 -1.70744 274 ft 6 kts 94°
2026-05-04 09:39 55.03577 -1.70659 276 ft 9 kts 147°
2026-05-04 09:39 55.03524 -1.70647 273 ft 7 kts 182°
2026-05-04 09:40 55.03469 -1.70650 273 ft 7 kts 182°
2026-05-04 09:40 55.03467 -1.70650 273 ft 0 kts 182°
2026-05-04 09:42 55.03368 -1.70579 274 ft 1 kts 65°
2026-05-04 09:43 55.03380 -1.70532 274 ft 10 kts 65°
2026-05-04 09:43 55.03512 -1.70035 271 ft 84 kts 65°
2026-05-04 09:43 55.03860 -1.68726 262 ft 152 kts 65°
2026-05-04 09:43 55.04179 -1.67499 383 ft 178 kts 66°
2026-05-04 09:44 55.04689 -1.65555 1334 ft 172 kts 66°
2026-05-04 09:44 55.05204 -1.63638 2166 ft 180 kts 65°
2026-05-04 09:44 55.05781 -1.61495 2547 ft 210 kts 65°
2026-05-04 09:46 54.98179 -1.53224 6897 ft 272 kts 189°
2026-05-04 09:46 54.96393 -1.54295 7626 ft 272 kts 210°
2026-05-04 09:46 54.94736 -1.55962 7985 ft 277 kts 212°
2026-05-04 09:47 54.93083 -1.57693 8042 ft 278 kts 213°
2026-05-04 09:47 54.91596 -1.59257 8050 ft 278 kts 213°
2026-05-04 09:49 54.79704 -1.71530 10651 ft 316 kts 212°
2026-05-04 09:49 54.77744 -1.73536 10919 ft 336 kts 212°
2026-05-04 09:49 54.75704 -1.75616 11502 ft 342 kts 212°
2026-05-04 09:51 54.61855 -1.83273 15341 ft 364 kts 191°
2026-05-04 09:51 54.59348 -1.84051 15926 ft 367 kts 191°
2026-05-04 09:51 54.56819 -1.84852 16498 ft 371 kts 192°
2026-05-04 09:51 54.54276 -1.85662 17063 ft 374 kts 191°
2026-05-04 09:52 54.51699 -1.86475 17628 ft 377 kts 191°
2026-05-04 09:52 54.49105 -1.87287 18191 ft 381 kts 191°
2026-05-04 09:52 54.46487 -1.88105 18691 ft 384 kts 191°
2026-05-04 09:52 54.43848 -1.88929 19160 ft 387 kts 191°
2026-05-04 09:53 54.41183 -1.89761 19619 ft 391 kts 191°
2026-05-04 09:53 54.38496 -1.90602 20074 ft 394 kts 191°
2026-05-04 09:53 54.35787 -1.91451 20530 ft 397 kts 191°
2026-05-04 09:53 54.33058 -1.92306 20990 ft 401 kts 191°
2026-05-04 09:54 54.30304 -1.93167 21428 ft 404 kts 190°
2026-05-04 09:54 54.27527 -1.94034 21867 ft 407 kts 190°
2026-05-04 09:54 54.24756 -1.95096 22278 ft 411 kts 198°
2026-05-04 09:54 54.22133 -1.97044 22698 ft 414 kts 209°
2026-05-04 09:55 54.19744 -1.99803 23118 ft 416 kts 221°
2026-05-04 09:55 54.17609 -2.03169 23522 ft 419 kts 224°
2026-05-04 09:55 54.15500 -2.06648 23855 ft 423 kts 224°
2026-05-04 09:55 54.13378 -2.10147 24163 ft 427 kts 224°
2026-05-04 09:56 54.11220 -2.13660 24492 ft 430 kts 224°
2026-05-04 09:56 54.09042 -2.17162 24802 ft 433 kts 223°
2026-05-04 09:56 54.06832 -2.20688 25114 ft 436 kts 223°
2026-05-04 09:56 54.04607 -2.24225 25413 ft 439 kts 223°
2026-05-04 09:57 54.02266 -2.27585 25695 ft 442 kts 215°
2026-05-04 09:57 53.99634 -2.30324 25993 ft 445 kts 205°
2026-05-04 09:57 53.96812 -2.32326 26282 ft 446 kts 199°
2026-05-04 09:57 53.93895 -2.34152 26573 ft 449 kts 199°
2026-05-04 09:58 53.90950 -2.35963 26861 ft 451 kts 199°
2026-05-04 09:58 53.87993 -2.37797 27142 ft 454 kts 199°
2026-05-04 09:58 53.85027 -2.39664 27425 ft 457 kts 199°
2026-05-04 10:00 53.63683 -2.52219 29195 ft 468 kts 179°
2026-05-04 10:00 53.60457 -2.51912 29479 ft 463 kts 166°
2026-05-04 10:02 53.39867 -2.37699 31511 ft 453 kts 153°
2026-05-04 10:04 53.19648 -2.23570 33555 ft 447 kts 155°
2026-05-04 10:04 53.16774 -2.21599 33845 ft 446 kts 155°
2026-05-04 10:04 53.13909 -2.19635 34139 ft 445 kts 155°
2026-05-04 10:04 53.11048 -2.17663 34351 ft 444 kts 155°
2026-05-04 10:05 53.08187 -2.15683 34535 ft 445 kts 155°
2026-05-04 10:05 53.05330 -2.13705 34723 ft 445 kts 155°
2026-05-04 10:05 53.02478 -2.11732 34951 ft 444 kts 156°
2026-05-04 10:05 52.99625 -2.09763 35158 ft 444 kts 156°
2026-05-04 10:06 52.96768 -2.07794 35335 ft 445 kts 156°
2026-05-04 10:06 52.93913 -2.05830 35531 ft 444 kts 156°
2026-05-04 10:06 52.91057 -2.03868 35745 ft 443 kts 156°
2026-05-04 10:08 52.73986 -1.92206 36879 ft 442 kts 157°
2026-05-04 10:08 52.71148 -1.90276 37058 ft 440 kts 158°
2026-05-04 10:08 52.65470 -1.86425 37055 ft 442 kts 158°
2026-05-04 10:09 52.59774 -1.82571 37057 ft 443 kts 158°
2026-05-04 10:09 52.54075 -1.78727 37053 ft 443 kts 158°
2026-05-04 10:10 52.48369 -1.74888 37052 ft 443 kts 158°
2026-05-04 10:10 52.42705 -1.71087 37045 ft 442 kts 158°
2026-05-04 10:11 52.37012 -1.67278 37047 ft 441 kts 158°
2026-05-04 10:11 52.31552 -1.62740 37053 ft 440 kts 150°
2026-05-04 10:12 52.26272 -1.57662 37043 ft 440 kts 150°
2026-05-04 10:12 52.21008 -1.52601 37049 ft 439 kts 150°
2026-05-04 10:13 52.15736 -1.47613 37048 ft 438 kts 151°
2026-05-04 10:13 52.10454 -1.42665 37043 ft 437 kts 151°
2026-05-04 10:14 52.05180 -1.37748 37044 ft 437 kts 151°
2026-05-04 10:16 51.84049 -1.18171 37051 ft 438 kts 151°
2026-05-04 10:16 51.78754 -1.13299 37045 ft 439 kts 152°
2026-05-04 10:17 51.73445 -1.08427 37025 ft 439 kts 152°
2026-05-04 10:19 51.52219 -0.89079 37014 ft 439 kts 152°
2026-05-04 10:19 51.46903 -0.84266 37026 ft 438 kts 152°
2026-05-04 10:20 51.41594 -0.79472 37019 ft 437 kts 152°
2026-05-04 10:20 51.36290 -0.74696 37007 ft 437 kts 152°
2026-05-04 10:21 51.31008 -0.69951 37012 ft 436 kts 152°
2026-05-04 10:21 51.25726 -0.65221 37021 ft 435 kts 153°
2026-05-04 10:22 51.17947 -0.58277 37020 ft 434 kts 153°
2026-05-04 10:23 51.12690 -0.53599 37017 ft 433 kts 153°
2026-05-04 10:25 50.91679 -0.35024 37023 ft 431 kts 153°
2026-05-04 10:25 50.86440 -0.30423 37018 ft 431 kts 153°
2026-05-04 10:26 50.81196 -0.25829 37022 ft 431 kts 154°
2026-05-04 10:26 50.75984 -0.21275 37022 ft 431 kts 154°
2026-05-04 10:27 50.70743 -0.16707 37018 ft 431 kts 154°
2026-05-04 10:27 50.65487 -0.12139 37013 ft 431 kts 154°
2026-05-04 10:28 50.60234 -0.07584 37011 ft 431 kts 154°
2026-05-04 10:28 50.54978 -0.03038 37007 ft 431 kts 154°
2026-05-04 10:29 50.49717 0.01500 37011 ft 431 kts 154°
2026-05-04 10:29 50.44454 0.06029 37007 ft 431 kts 154°
2026-05-04 10:30 50.39192 0.10544 37005 ft 431 kts 154°
2026-05-04 10:30 50.33929 0.15051 37012 ft 431 kts 154°
2026-05-04 10:31 50.29557 0.18785 37011 ft 431 kts 154°
2026-05-04 10:32 50.11574 0.35589 37004 ft 431 kts 149°
2026-05-04 10:33 50.06575 0.40765 37011 ft 431 kts 150°
2026-05-04 10:33 50.01568 0.45886 37009 ft 430 kts 150°
2026-05-04 10:34 49.96561 0.50983 37005 ft 430 kts 150°
2026-05-04 10:34 49.91557 0.56066 37003 ft 430 kts 150°
2026-05-04 10:35 49.86557 0.61140 37000 ft 430 kts 149°
2026-05-04 10:35 49.81992 0.67185 36999 ft 434 kts 141°
2026-05-04 10:36 49.77623 0.73637 36999 ft 434 kts 140°
2026-05-04 10:36 49.73251 0.80064 36987 ft 434 kts 141°
2026-05-04 10:37 49.68858 0.86453 36984 ft 433 kts 141°
2026-05-04 10:37 49.64459 0.92809 36987 ft 433 kts 141°
2026-05-04 10:39 49.48963 1.15041 37004 ft 444 kts 141°
2026-05-04 10:40 49.44398 1.21553 36998 ft 450 kts 141°
2026-05-04 10:40 49.39798 1.28104 36993 ft 452 kts 141°
2026-05-04 10:41 49.35176 1.34666 36985 ft 453 kts 141°
2026-05-04 10:41 49.30547 1.41221 36987 ft 453 kts 141°
2026-05-04 10:42 49.25924 1.47749 36982 ft 451 kts 142°
2026-05-04 10:42 49.21312 1.54244 36977 ft 450 kts 142°
2026-05-04 10:43 49.16706 1.60712 36982 ft 449 kts 142°
2026-05-04 10:45 48.98368 1.86295 36990 ft 445 kts 142°
2026-05-04 10:45 48.93796 1.92633 36982 ft 444 kts 142°
2026-05-04 10:46 48.89223 1.98955 36981 ft 443 kts 142°
2026-05-04 10:46 48.84661 2.05246 36992 ft 443 kts 143°
2026-05-04 10:47 48.80131 2.11474 36997 ft 444 kts 143°
2026-05-04 10:47 48.75545 2.17766 36996 ft 444 kts 143°
2026-05-04 10:49 48.57186 2.42793 36989 ft 444 kts 143°
2026-05-04 10:50 48.52593 2.49014 36983 ft 444 kts 143°
2026-05-04 10:52 48.34142 2.73850 36987 ft 445 kts 143°
2026-05-04 10:52 48.29520 2.80034 36977 ft 445 kts 144°
2026-05-04 10:54 48.10136 3.02690 36971 ft 441 kts 149°
2026-05-04 10:56 47.91071 3.15666 36975 ft 430 kts 162°
2026-05-04 10:56 47.88313 3.17394 36976 ft 430 kts 162°
2026-05-04 10:57 47.82791 3.20859 36974 ft 431 kts 162°
2026-05-04 10:57 47.77265 3.24319 36976 ft 431 kts 162°
2026-05-04 10:58 47.71732 3.27776 36969 ft 432 kts 162°
2026-05-04 10:58 47.66191 3.31229 36969 ft 431 kts 162°
2026-05-04 10:59 47.60658 3.34669 36972 ft 431 kts 162°
2026-05-04 10:59 47.55122 3.38104 36969 ft 431 kts 162°
2026-05-04 11:00 47.49604 3.41514 36959 ft 424 kts 162°
2026-05-04 11:01 47.31025 3.52916 36976 ft 410 kts 163°
2026-05-04 11:02 47.28391 3.54526 36971 ft 410 kts 163°
2026-05-04 11:05 46.91195 3.85317 36998 ft 451 kts 116°
2026-05-04 11:06 46.89034 3.93934 36988 ft 451 kts 115°
2026-05-04 11:06 46.86833 4.02520 36943 ft 451 kts 116°
2026-05-04 11:08 46.79458 4.32890 32855 ft 462 kts 107°
2026-05-04 11:10 46.74931 4.64655 29051 ft 445 kts 107°
2026-05-04 11:12 46.70435 4.94665 25713 ft 424 kts 107°
2026-05-04 11:12 46.69802 4.98852 25263 ft 420 kts 107°
2026-05-04 11:12 46.69175 5.02989 24811 ft 417 kts 107°
2026-05-04 11:12 46.68550 5.07099 24357 ft 415 kts 107°
2026-05-04 11:13 46.67927 5.11188 23907 ft 412 kts 107°
2026-05-04 11:13 46.67306 5.15253 23409 ft 410 kts 106°
2026-05-04 11:13 46.66688 5.19294 22887 ft 407 kts 106°
2026-05-04 11:13 46.66082 5.23299 22441 ft 404 kts 106°
2026-05-04 11:14 46.65483 5.27276 21976 ft 401 kts 106°
2026-05-04 11:14 46.64893 5.31183 21521 ft 400 kts 106°
2026-05-04 11:14 46.64296 5.35126 21071 ft 398 kts 106°
2026-05-04 11:16 46.60176 5.61869 17925 ft 360 kts 106°
2026-05-04 11:16 46.59628 5.65369 17490 ft 350 kts 107°
2026-05-04 11:16 46.59092 5.68780 17094 ft 342 kts 107°
2026-05-04 11:17 46.58567 5.72119 16705 ft 336 kts 107°
2026-05-04 11:17 46.58048 5.75410 16333 ft 336 kts 107°
2026-05-04 11:19 46.47377 5.91211 13394 ft 341 kts 149°
2026-05-04 11:19 46.45432 5.93158 12927 ft 339 kts 149°
2026-05-04 11:19 46.43520 5.95078 12473 ft 328 kts 149°
2026-05-04 11:19 46.41680 5.96923 12179 ft 313 kts 149°
2026-05-04 11:20 46.39951 5.98658 12067 ft 294 kts 149°
2026-05-04 11:20 46.38314 6.00307 11817 ft 282 kts 146°
2026-05-04 11:20 46.37051 6.02378 11830 ft 276 kts 123°
2026-05-04 11:20 46.36471 6.05030 11742 ft 282 kts 100°
2026-05-04 11:22 46.44979 6.21299 10565 ft 287 kts 47°
2026-05-04 11:22 46.46376 6.23362 10305 ft 287 kts 48°
2026-05-04 11:23 46.47767 6.25420 10023 ft 284 kts 48°
2026-05-04 11:23 46.49147 6.27465 9752 ft 284 kts 48°
2026-05-04 11:24 46.54832 6.40337 8180 ft 239 kts 117°
2026-05-04 11:25 46.53936 6.42284 7936 ft 230 kts 140°
2026-05-04 11:25 46.52643 6.43602 7673 ft 226 kts 158°
2026-05-04 11:25 46.51143 6.44183 7426 ft 223 kts 173°
2026-05-04 11:26 46.48093 6.44645 7087 ft 220 kts 181°
2026-05-04 11:27 46.40047 6.34811 5436 ft 219 kts 224°
2026-05-04 11:28 46.38976 6.33242 5195 ft 218 kts 225°
2026-05-04 11:28 46.37909 6.31680 4941 ft 219 kts 225°
2026-05-04 11:28 46.36839 6.30102 4671 ft 219 kts 225°
2026-05-04 11:28 46.35789 6.28531 4384 ft 214 kts 226°
2026-05-04 11:29 46.34780 6.27028 4114 ft 203 kts 225°
2026-05-04 11:29 46.33816 6.25608 3846 ft 193 kts 225°
2026-05-04 11:29 46.32900 6.24264 3587 ft 181 kts 225°
2026-05-04 11:29 46.32062 6.23034 3415 ft 162 kts 226°
2026-05-04 11:31 46.26982 6.15566 1953 ft 146 kts 227°
2026-05-04 11:33 46.23861 6.11069 1397 ft 18 kts 178°
2026-05-04 11:33 46.23752 6.11089 1397 ft 15 kts 176°
2026-05-04 11:33 46.23659 6.11021 1402 ft 16 kts 224°
2026-05-04 11:34 46.23585 6.10906 1397 ft 15 kts 228°
2026-05-04 11:34 46.23515 6.10798 1398 ft 14 kts 225°
2026-05-04 11:34 46.23445 6.10701 1400 ft 12 kts 207°
2026-05-04 11:34 46.23383 6.10758 1406 ft 13 kts 135°
2026-05-04 11:35 46.23304 6.10796 1402 ft 12 kts 194°
2026-05-04 11:35 46.23229 6.10748 1404 ft 12 kts 218°
2026-05-04 11:35 46.23171 6.10664 1403 ft 12 kts 225°
2026-05-04 11:35 46.23143 6.10625 1402 ft 3 kts 210°
2026-05-04 11:36 46.23124 6.10636 1404 ft 3 kts 142°
2026-05-04 11:36 46.23109 6.10658 1403 ft 3 kts 136°
2026-05-04 11:36 46.23105 6.10663 1402 ft 0 kts 136°